Regional Weather Roundup
Issued by NWS Kansas City/Pleasant Hill, MO

Home | Current Version | Previous Version | Graphics & Text | Print | Product List | Glossary Off
Versions: 1 2 3 4 5 6 7 8 9 10 11 12 13 14 15 16 17 18 19 20 21 22 23 24 25 26 27 28 29 30 31 32 33 34 35 36 37 38 39 40 41 42 43 44 45 46 47 48 49 50

000
ASUS43 KEAX 062010
RWREAX

WEATHER ROUNDUP FOR EASTERN KANSAS AND NORTHWEST MISSOURI
NATIONAL WEATHER SERVICE KANSAS CITY/PLEASANT HILL MO
200 PM CST TUE DEC 06 2016

KSZ040-057-103>105-MOZ028-029-037-043-062100-
...KANSAS CITY METROPOLITAN AREA...

CITY           SKY/WX    TMP DP  RH WIND       PRES   REMARKS
K.C. INTL      MOSUNNY   38  14  37 NW8       30.04S WCI  32
K.C. DOWNTOWN  SUNNY     38  14  37 NW10G21   30.05S WCI  31
LEES SUMMIT    SUNNY     37  14  38 W13       30.04S WCI  29
OLATHE - IXD   SUNNY     38  14  37 NW10      30.06R WCI  31
OLATHE - OJC   SUNNY     37  14  38 NW9       30.05S WCI  30
LAWRENCE       SUNNY     39  15  37 NW9       30.07S WCI  33

$$

MOZ001>008-011>017-020>025-030>033-038>040-044>046-053-054-062100-
...NORTHERN AND CENTRAL MISSOURI...

CITY           SKY/WX    TMP DP  RH WIND       PRES   REMARKS
ST. JOSEPH     SUNNY     36  15  42 NW18      30.05S WCI  26
WHITEMAN AFB   NOT AVBL
CLINTON        NOT AVBL
SEDALIA        MOSUNNY   40  21  46 W12       30.03R WCI  33
WARSAW         NOT AVBL
CHILLICOTHE      N/A     38  18  44 NW13G18   30.02S WCI  30
KIRKSVILLE     SUNNY     38  20  48 W16       29.96S WCI  29

$$

MOZ041-047>049-056>058-063>065-088>090-097-062100-
...EASTERN AND SOUTHERN MISSOURI...

CITY           SKY/WX    TMP DP  RH WIND       PRES   REMARKS
ST. LOUIS INTL CLOUDY    42  34  73 W15G24    29.94R WCI  34
SPIRIT OF STL  CLOUDY    41  37  86 W13       29.96R WCI  34
COLUMBIA       SUNNY     40  24  53 NW14      29.99R WCI  32
JEFFERSON CITY SUNNY     40  25  55 NW14      30.01R WCI  32
ROLLA          CLOUDY    38  34  85 NW13      29.97R WCI  30
OSAGE BEACH    MOSUNNY   41  23  48 NW9G18    30.02R
SPRINGFIELD    MOSUNNY   42  25  50 N9        30.00S
BRANSON        CLOUDY    41  34  75 NW9       30.00S
JOPLIN         MOSUNNY   42  25  50 N13       30.05S
WEST PLAINS    CLOUDY    40  35  83 N10       29.98R WCI  33

$$

IAZ060-094-KSZ022-034>040-054-083-096-NEZ052-066-093-062100-
...KANSAS...SOUTHEAST NEBRASKA AND IOWA...

CITY           SKY/WX    TMP DP  RH WIND       PRES   REMARKS
TOPEKA         SUNNY     39  13  34 NW10      30.07F WCI  32
MANHATTAN      SUNNY     40  13  33 VRB7      30.06F
EMPORIA        SUNNY     39  11  31 N9        30.05F WCI  33
CHANUTE        SUNNY     41  15  35 N13       30.06F WCI  34
WICHITA        MOSUNNY   40  14  34 N10       30.07F WCI  33
OMAHA          SUNNY     35  13  40 NW20G25   29.98F WCI  24
LINCOLN        SUNNY     36   8  31 NW21G30   30.03S WCI  25
FALLS CITY     SUNNY     37  12  35 NW14      30.03F WCI  28
LAMONI         SUNNY     34  17  50 W14       29.96F WCI  25
DES MOINES     MOSUNNY   34  14  43 W20G26    29.93S WCI  23

$$




USA.gov is the U.S. government's official web portal to all federal, state and local government web resources and services.